STARLINK-35593, 66107

Orbit data source: Space-Track

STARLINK-35593, 66107 is a payload satellite owned by SpaceX/Seattle (US) in LEO that was launched on Sun, 19 Oct 2025 UTC via an FALCON 9 launch vehicle from the Air Force Western Test Range (AFWTR). Payload-class satellites include a variety of spacecraft equipped with specific instruments for various scientific and technological missions. These include communications satellites like Starlink; space stations such as the ISS; scientific satellites like the Hubble; Earth observation satellites from companies like Planet Labs, Umbra, and HawkEye 360; GPS; miniature CubeSats for education and research; and military/defense satellites.

Loading next visibility...
Identifier
66107, 2025-236X
Orbit
LEO
Country
Flag of USUS
Related business
Manufacturer
SpaceX/Seattle
Mission
Operational Commercial Communications
Bus & Motor
STARLINK V2MO, Unknown motor
Mass
575 kg wet, ~530 kg dry
Launch date (UTC)
2025-10-19 (8 months ago)
Launch vehicle
FALCON 9
Launch site
Air Force Western Test Range (AFWTR)
Object type
Payload
Rocket body
Debris
Shape & HBR
Box + 2 Pan, 17.7 m
Radar Cross Section
36.964 m², Large (>1 m²)

Expand to show TLE details & history
Last TLE update: 1 day ago

TLE from 1 day ago
0 STARLINK-35593
1 66107U 25236X   26170.90731258  .00020153  00000-0  60578-3 0  9999
2 66107  53.1598 348.4399 0000858  56.5161 303.5924 15.34411649 38609
Epoch: 2026-06-19T21:46Z
TLE epoch observation values (Epoch: 2026-06-19T21:46:31.806Z)
Latitude
-0°
Longitude
113.67782°
Altitude
463.245 km
Speed
7.636 km/s
True Right ascension
23h 13m 45s
True Declination
0° 00' 00"
Sunlit
Object was in daylight at epoch
Visualization orbit readout
Latitude
Unknown
Longitude
Unknown
Altitude
Unknown
Speed
Unknown
Apparent Right ascension
Unknown
Apparent Declination
Unknown
Sunlit
N/A
Visualization observer readout
Local Sidereal Time
08:42:21
Azimuth
Unknown
Elevation
Unknown
Doppler factor
Unknown
Orbital elements
Apogee altitude
463.512 km
Perigee altitude
462.339 km
Semi-major axis
6,841.063 km
Eccentricity
0.00009
Inclination
53.1598°
RAAN
348.4399°
Arg. of periapsis
56.5161°
True anomaly
303.58421°
Mean anomaly
303.5924°
Eccentric anomaly
303.5883°
Mean motion
3.83582 °/min
Orbital period
93.85 mins
BSTAR
0.00060578
Loading maneuver chart data...
Computing Atmospheric mass density...
Loading historical data...
Loading historical data...
Loading historical data...
Loading historical data...
Loading historical data...
Loading historical data...
Loading historical data...

Documentation

Showing up to 5 results
|